This is the latest recevied weather packets stored in our database for station/object KI4MRC. If no packets are shown the sender has not sent any weather packets the latest 10 day(s).
| Time | Temp. | Humidity | Pressure | Rain* | Wind** | Luminosity | Snow |
|---|---|---|---|---|---|---|---|
| 1788134357 | 79° F | 96% | 762.3 mmHg | 0.17 in | - | 0 W/m² | - |
| 1788134053 | 80° F | 96% | 762.2 mmHg | 0.17 in | - | 0 W/m² | - |
| 1788133748 | 80° F | 96% | 762.2 mmHg | 0.14 in | - | 0 W/m² | - |
| 1788133443 | 80° F | 96% | 762.2 mmHg | 0.12 in | - | 0 W/m² | - |
| 1788133140 | 80° F | 95% | 762.1 mmHg | 0.14 in | - | 0 W/m² | - |
| 1788132840 | 80° F | 95% | 762.4 mmHg | 0.09 in | - | 0 W/m² | - |
| 1788132535 | 80° F | 94% | 762.3 mmHg | 0.09 in | - | 1 W/m² | - |
| 1788132231 | 80° F | 93% | 762.4 mmHg | 0.09 in | - | 1 W/m² | - |
| 1788131928 | 80° F | 93% | 762.3 mmHg | 0.05 in | - | 1 W/m² | - |
| 1788131623 | 81° F | 92% | 762.2 mmHg | 0 in | - | 2 W/m² | - |
| 1788131322 | 82° F | 91% | 762.3 mmHg | 0 in | - | 3 W/m² | - |
| 1788131018 | 82° F | 91% | 762.4 mmHg | 0 in | - | 3 W/m² | - |
| 1788130717 | 82° F | 91% | 762.4 mmHg | 0 in | - | 2 W/m² | - |
| 1788130412 | 82° F | 90% | 762.4 mmHg | 0 in | - | 1 W/m² | - |
| 1788130107 | 83° F | 91% | 762.4 mmHg | 0 in | - | 8 W/m² | - |
| 1788129801 | 83° F | 89% | 762.2 mmHg | 0 in | - | 20 W/m² | - |
| 1788129498 | 83° F | 89% | 762.3 mmHg | 0 in | - | 28 W/m² | - |
| 1788129194 | 83° F | 90% | 762.2 mmHg | 0 in | - | 35 W/m² | - |
| 1788128893 | 83° F | 90% | 762.2 mmHg | 0 in | - | 46 W/m² | - |
| 1788128589 | 82° F | 90% | 762.1 mmHg | 0 in | - | 53 W/m² | - |
| 1788128284 | 82° F | 90% | 762 mmHg | 0 in | - | 58 W/m² | - |
| 1788127981 | 82° F | 90% | 762.1 mmHg | 0 in | - | 58 W/m² | - |
| 1788127681 | 82° F | 89% | 761.9 mmHg | 0 in | - | 54 W/m² | - |
| 1788127381 | 82° F | 90% | 762 mmHg | 0 in | - | 51 W/m² | - |
| 1788127078 | 82° F | 89% | 762 mmHg | 0 in | - | 46 W/m² | - |
* Rain latest hour (hover to see other rain measurements)
** Current wind speed in m/s (hover to see current wind gust speed)